Beaufort, NC

7:59 PM EST on February 07, 2016 (GMT -0500)
Smith

Weather History for KMRH - November, 2012

Change the Weather History Date:

Saturday, November 17, 2012

  Actual Average (KEWN) Record (KEWN)
Temperature  
Mean Temperature 50 °F 55 °F  
Max Temperature 57 °F 66 °F 81 °F (1957)
Min Temperature 42 °F 44 °F 22 °F (1967)
Degree Days  
Heating Degree Days 16 11  
Month to date heating degree days 147  
Since 1 July heating degree days 264  
Cooling Degree Days 0 0  
Month to date cooling degree days 14  
Year to date cooling degree days 1899  
Moisture  
Dew Point 46 °F    
Average Humidity 86    
Maximum Humidity 93    
Minimum Humidity 70    
Precipitation  
Precipitation 0.00 in 0.12 in 0.77 in (2002)
Month to date precipitation 1.89  
Year to date precipitation 47.84  
Snow  
Snow 0.00 in - - ()
Month to date snowfall  
Since 1 July snowfall  
Snow Depth -    
Sea Level Pressure  
Sea Level Pressure 30.34 in    
Wind  
Wind Speed 13 mph (NNE)    
Max Wind Speed 22 mph    
Max Gust Speed 32 mph    
Visibility 10 miles    
Events      
T = Trace of Precipitation, MM = Missing Value Source: NWS Daily Summary

Daily Weather History Graph

Daily Weather History Graph

Search for Another Location

Airport or City:

Trip Planner

Search our weather history database for the weather conditions in past years. The results will help you decide how hot, cold, wet, or windy it might be!

Date:

Astronomy

Nov. 17, 2012 Rise Set
Actual Time 6:42 AM EST 5:00 PM EST
Civil Twilight 6:15 AM EST 5:27 PM EST
Nautical Twilight 5:45 AM EST 5:57 PM EST
Astronomical Twilight 5:15 AM EST 6:27 PM EST
Moon 10:25 AM EST (11/17) 9:06 PM EST (11/17)
Length of Visible Light 11h 11m
Length of Day
10h 17m
Waxing Crescent, 20% of the Moon is Illuminated
Nov 17
Waxing Crescent
Nov 20
First Quarter
Nov 28
Full
Dec 6
Last Quarter
Dec 13
New

Hourly Weather History & Observations

Time (EST) Temp. Windchill Dew Point Humidity Pressure Visibility Wind Dir Wind Speed Gust Speed Precip Events Conditions
12:56 AM 44.1 °F 39.0 °F 41.0 °F 89% 30.32 in 10.0 mi North 9.2 mph - N/A   Clear
1:56 AM 43.0 °F 39.5 °F 41.0 °F 93% 30.33 in 10.0 mi North 5.8 mph - N/A   Clear
2:56 AM 43.0 °F 38.2 °F 41.0 °F 93% 30.32 in 10.0 mi North 8.1 mph - N/A   Clear
3:56 AM 42.1 °F 38.4 °F 39.9 °F 92% 30.32 in 10.0 mi North 5.8 mph - N/A   Clear
4:56 AM 43.0 °F 38.2 °F 41.0 °F 93% 30.32 in 10.0 mi North 8.1 mph - N/A   Partly Cloudy
5:10 AM 42.8 °F 38.0 °F 41.0 °F 93% 30.32 in 10.0 mi North 8.1 mph - N/A   Mostly Cloudy
5:56 AM 46.0 °F 39.6 °F 43.0 °F 89% 30.32 in 10.0 mi NNE 15.0 mph - N/A   Overcast
6:49 AM 46.4 °F 41.5 °F 42.8 °F 87% 30.33 in 10.0 mi NNE 10.4 mph - N/A   Scattered Clouds
6:56 AM 46.0 °F 40.6 °F 43.0 °F 89% 30.33 in 10.0 mi NNE 11.5 mph - N/A   Partly Cloudy
7:56 AM 48.9 °F - 44.1 °F 83% 30.35 in 10.0 mi NNE 12.7 mph 20.7 mph N/A   Clear
8:56 AM 52.0 °F - 46.9 °F 83% 30.36 in 10.0 mi NNE 15.0 mph 23.0 mph N/A   Clear
9:56 AM 53.1 °F - 46.9 °F 80% 30.36 in 10.0 mi NNE 13.8 mph 26.5 mph N/A   Clear
10:56 AM 55.0 °F - 48.0 °F 77% 30.35 in 10.0 mi NNE 18.4 mph 26.5 mph N/A   Clear
12:56 PM 57.9 °F - 48.0 °F 70% 30.34 in 10.0 mi NNE 21.9 mph 32.2 mph N/A   Mostly Cloudy
1:56 PM 57.9 °F - 48.9 °F 72% 30.34 in 10.0 mi NNE 19.6 mph 25.3 mph N/A   Partly Cloudy
2:56 PM 55.9 °F - 48.9 °F 77% 30.35 in 10.0 mi NNE 18.4 mph 26.5 mph N/A   Partly Cloudy
3:56 PM 55.0 °F - 48.9 °F 80% 30.36 in 10.0 mi NNE 19.6 mph 26.5 mph N/A   Mostly Cloudy
4:56 PM 54.0 °F - 48.9 °F 83% 30.37 in 10.0 mi NNE 17.3 mph 27.6 mph N/A   Mostly Cloudy
5:56 PM 53.1 °F - 48.9 °F 86% 30.37 in 10.0 mi NNE 19.6 mph 27.6 mph N/A   Overcast
6:56 PM 53.1 °F - 48.9 °F 86% 30.35 in 10.0 mi NNE 19.6 mph 27.6 mph N/A   Scattered Clouds
7:56 PM 52.0 °F - 48.9 °F 89% 30.35 in 10.0 mi NNE 19.6 mph 26.5 mph N/A   Partly Cloudy
8:56 PM 52.0 °F - 48.9 °F 89% 30.35 in 10.0 mi NNE 20.7 mph 29.9 mph N/A   Mostly Cloudy
9:56 PM 52.0 °F - 48.9 °F 89% 30.32 in 10.0 mi NNE 18.4 mph - N/A   Mostly Cloudy
10:34 PM 53.6 °F - 50.0 °F 88% 30.32 in 10.0 mi NNE 19.6 mph 29.9 mph N/A   Overcast
10:56 PM 53.1 °F - 50.0 °F 89% 30.32 in 10.0 mi NNE 21.9 mph 31.1 mph N/A   Overcast
11:56 PM 54.0 °F - 50.0 °F 86% 30.31 in 10.0 mi NNE 18.4 mph 25.3 mph N/A   Overcast